FW9251 Weather Reports


time (UTC)temp
F
wind
direction
speed
knots
gust
knots
rain 1hr
in
rain 24hr
in
rain mn
in
humidity
%
barometer
mb
20260503224126 89 276 2.6 2.6 0.00 0.00 0.00 35 1007.0
20260503223624 89 327 1.7 1.7 0.00 0.00 0.00 33 1007.3
20260503223120 89 319 3.5 4.3 0.00 0.00 0.00 33 1007.2
20260503222618 88 314 0.9 1.7 0.00 0.00 0.00 34 1007.3
20260503222115 88 230 1.7 2.6 0.00 0.00 0.00 32 1007.2
20260503221613 89 353 2.6 5.2 0.00 0.00 0.00 35 1007.4
20260503221110 88 292 3.5 5.2 0.00 0.00 0.00 35 1007.5
20260503220607 88 191 1.7 2.6 0.00 0.00 0.00 39 1007.7
20260503220104 88 319 0.0 1.7 0.00 0.00 0.00 39 1007.7
20260503215601 88 317 3.5 6.1 0.00 0.00 0.00 36 1007.9
20260503215057 87 305 2.6 5.2 0.00 0.00 0.00 39 1007.7
20260503214556 87 341 4.3 6.1 0.00 0.00 0.00 38 1007.7
20260503214052 87 353 2.6 4.3 0.00 0.00 0.00 39 1007.9
20260503213551 87 319 6.1 7.8 0.00 0.00 0.00 36 1007.8
20260503213047 87 331 5.2 7.0 0.00 0.00 0.00 37 1008.1
20260503212544 87 316 6.1 8.7 0.00 0.00 0.00 39 1007.9
20260503212042 86 324 1.7 1.7 0.00 0.00 0.00 37 1008.1
20260503211539 87 305 1.7 1.7 0.00 0.00 0.00 41 1008.2
20260503211034 86 318 5.2 7.8 0.00 0.00 0.00 39 1008.2
20260503210531 86 322 5.2 7.0 0.00 0.00 0.00 40 1008.3
20260503210027 85 323 3.5 5.2 0.00 0.00 0.00 41 1008.4
20260503205524 85 311 4.3 6.1 0.00 0.00 0.00 41 1008.5
20260503205020 86 319 5.2 7.0 0.00 0.00 0.00 41 1008.5
20260503204517 86 314 0.9 0.9 0.00 0.00 0.00 47 1008.4
20260503204014 85 328 4.3 6.1 0.00 0.00 0.00 43 1008.6
20260503203511 85 284 1.7 1.7 0.00 0.00 0.00 46 1008.8
20260503203008 85 321 3.5 6.1 0.00 0.00 0.00 45 1008.7
20260503202506 85 324 0.0 0.9 0.00 0.00 0.00 47 1008.7
20260503202004 84 253 2.6 2.6 0.00 0.00 0.00 48 1008.7
20260503201502 84 300 4.3 5.2 0.00 0.00 0.00 47 1008.9
20260503200959 84 37 3.5 6.1 0.00 0.00 0.00 48 1008.8
20260503200455 83 358 4.3 5.2 0.00 0.00 0.00 49 1009.1
20260503195952 84 292 3.5 5.2 0.00 0.00 0.00 48 1009.0
20260503195449 83 344 1.7 1.7 0.00 0.00 0.00 52 1008.9
20260503194945 83 344 4.3 5.2 0.00 0.00 0.00 50 1009.1
20260503194443 83 306 3.5 4.3 0.00 0.00 0.00 49 1009.3
20260503193938 82 325 5.2 7.0 0.00 0.00 0.00 50 1009.2
20260503193433 82 337 2.6 2.6 0.00 0.00 0.00 51 1009.3
20260503192929 82 323 3.5 5.2 0.00 0.00 0.00 50 1009.1
20260503192426 81 313 1.7 2.6 0.00 0.00 0.00 51 1009.4
20260503191921 81 331 3.5 4.3 0.00 0.00 0.00 53 1009.6
20260503191420 81 336 6.1 6.1 0.00 0.00 0.00 51 1009.5
20260503190915 81 341 3.5 4.3 0.00 0.00 0.00 54 1009.4
20260503190413 81 306 2.6 2.6 0.00 0.00 0.00 53 1009.6
20260503185909 80 340 4.3 5.2 0.00 0.00 0.00 53 1009.7
20260503185406 80 340 4.3 6.1 0.00 0.00 0.00 52 1009.7
20260503184905 79 295 3.5 4.3 0.00 0.00 0.00 54 1009.6
20260503184402 79 355 4.3 6.1 0.00 0.00 0.00 53 1009.6
20260503183858 79 330 5.2 7.8 0.00 0.00 0.00 51 1009.8
20260503183355 79 318 7.0 7.8 0.00 0.00 0.00 53 1009.7
20260503182853 78 345 4.3 5.2 0.00 0.00 0.00 52 1010.0
20260503182351 79 310 2.6 2.6 0.00 0.00 0.00 54 1009.9
20260503181848 78 324 4.3 5.2 0.00 0.00 0.00 55 1010.0
20260503181345 77 346 4.3 6.1 0.00 0.00 0.00 56 1010.2
20260503180842 77 286 4.3 5.2 0.00 0.00 0.00 55 1010.1
20260503180340 77 30 4.3 5.2 0.00 0.00 0.00 55 1010.1
20260503175836 77 351 2.6 5.2 0.00 0.00 0.00 56 1010.1
20260503175334 76 3 2.6 4.3 0.00 0.00 0.00 56 1010.1
20260503174829 76 326 3.5 4.3 0.00 0.00 0.00 55 1010.4
20260503174328 76 348 6.1 7.0 0.00 0.00 0.00 56 1010.4
20260503173823 75 344 3.5 4.3 0.00 0.00 0.00 58 1010.3
20260503173319 75 4 3.5 4.3 0.00 0.00 0.00 58 1010.4
20260503172816 73 345 3.5 4.3 0.00 0.00 0.00 60 1010.4
20260503172314 73 318 3.5 5.2 0.00 0.00 0.00 61 1010.5
20260503171810 73 344 3.5 4.3 0.00 0.00 0.00 60 1010.6
20260503171307 73 349 5.2 6.1 0.00 0.00 0.00 59 1010.5
20260503170804 73 300 4.3 4.3 0.00 0.00 0.00 61 1010.5
20260503170300 72 33 3.5 5.2 0.00 0.00 0.00 61 1010.5
20260503150653 64 15 2.6 4.3 0.00 0.00 0.00 77 1011.1
20260503150149 64 25 0.9 0.9 0.00 0.00 0.00 77 1011.0
20260503140113 61 206 0.0 0.0 0.00 0.00 0.00 84 1011.0
20260503131042 55 207 0.0 0.0 0.00 0.00 0.00 91 1010.8
20260503130539 56 207 0.0 0.0 0.00 0.00 0.00 91 1010.7
20260503110430 57 206 0.0 0.0 0.00 0.00 0.00 89 1011.1
20260503090321 59 205 0.0 0.9 0.00 0.00 0.00 87 1011.4
20260503081248 59 184 0.0 0.0 0.00 0.00 0.00 88 1011.4
20260503080744 59 276 0.0 0.0 0.00 0.00 0.00 89 1011.2
20260503080242 59 275 0.9 0.9 0.00 0.00 0.00 90 1011.2
20260503072718 62 204 0.0 0.0 0.00 0.00 0.00 85 1011.2
20260503072215 62 157 0.0 0.9 0.00 0.00 0.00 84 1011.2
20260503071712 62 203 0.9 1.7 0.00 0.00 0.00 84 1011.1
20260503071209 62 192 0.0 0.0 0.00 0.00 0.00 84 1010.9
20260503070705 63 336 3.5 5.2 0.00 0.00 0.00 84 1010.9
20260503070203 63 0 4.3 6.1 0.00 0.00 0.00 84 1011.2
20260503060127 62 206 0.0 0.0 0.00 0.00 0.00 87 1011.7
20260503055119 63 210 0.0 0.9 0.00 0.00 0.00 86 1012.1
20260503054615 63 207 0.0 0.0 0.00 0.00 0.00 86 1011.8
20260503054112 63 211 0.9 1.7 0.00 0.00 0.00 85 1011.7
20260503053610 63 210 0.0 0.9 0.00 0.00 0.00 85 1012.0
20260503053108 63 207 0.9 0.9 0.00 0.00 0.00 85 1011.8
20260503052604 63 210 0.0 0.0 0.00 0.00 0.00 85 1012.1
20260503052101 64 207 0.9 1.7 0.00 0.00 0.00 85 1011.8
20260503051556 64 204 0.9 0.9 0.00 0.00 0.00 84 1011.7
20260503051054 64 206 0.0 0.9 0.00 0.00 0.00 84 1011.8
20260503050549 64 204 0.0 0.9 0.00 0.00 0.00 84 1011.7
20260503050047 64 209 0.0 0.0 0.00 0.00 0.00 84 1011.7
20260503045544 65 299 0.9 0.9 0.00 0.00 0.00 83 1011.8
20260503045041 65 209 0.0 0.0 0.00 0.00 0.00 82 1011.9
20260503044538 65 200 0.0 0.0 0.00 0.00 0.00 82 1011.6
20260503044036 66 209 0.0 0.9 0.00 0.00 0.00 82 1011.8
20260503043532 65 211 0.9 1.7 0.00 0.00 0.00 81 1011.6
20260503043028 66 215 0.9 0.9 0.00 0.00 0.00 81 1011.6
20260503042526 65 207 0.0 0.0 0.00 0.00 0.00 81 1011.5
20260503042021 66 200 0.0 0.0 0.00 0.00 0.00 82 1011.3
20260503041518 66 198 0.0 0.0 0.00 0.00 0.00 81 1011.4
20260503041016 66 196 0.0 0.0 0.00 0.00 0.00 81 1011.1
20260503040514 66 203 0.0 0.0 0.00 0.00 0.00 79 1011.2
20260503040011 67 213 0.0 0.0 0.00 0.00 0.00 79 1010.9
20260503035507 67 210 0.0 0.9 0.00 0.00 0.00 78 1011.1
20260503035005 67 204 0.9 0.9 0.00 0.00 0.00 77 1010.7
20260503034502 68 163 0.0 0.0 0.00 0.00 0.00 77 1010.6
20260503033959 69 196 0.0 0.0 0.00 0.00 0.00 73 1010.5
20260503033456 69 223 0.0 0.0 0.00 0.00 0.00 72 1010.6
20260503032954 70 210 0.0 0.0 0.00 0.00 0.00 72 1010.5
20260503032452 71 226 1.7 1.7 0.00 0.00 0.00 71 1010.6
20260503031950 71 204 2.6 2.6 0.00 0.00 0.00 69 1010.4
20260503031447 72 216 2.6 2.6 0.00 0.00 0.00 66 1010.4
20260503030944 72 204 0.9 1.7 0.00 0.00 0.00 63 1010.3
20260503030440 74 198 0.9 1.7 0.00 0.00 0.00 59 1010.1
20260503025937 74 188 0.0 0.9 0.00 0.00 0.00 57 1010.1
20260503025434 74 187 1.7 2.6 0.00 0.00 0.00 57 1009.8
20260503024932 74 289 2.6 4.3 0.00 0.00 0.00 56 1009.6
20260503024428 74 343 0.9 1.7 0.00 0.00 0.00 58 1009.4
20260503023925 75 305 2.6 7.0 0.00 0.00 0.00 57 1009.3
20260503023422 75 303 3.5 5.2 0.00 0.00 0.00 56 1009.4
20260503022919 75 27 1.7 2.6 0.00 0.00 0.00 57 1009.1
20260503022414 75 298 3.5 4.3 0.00 0.00 0.00 57 1009.3
20260503021910 75 289 2.6 2.6 0.00 0.00 0.00 56 1009.2
20260503021406 75 101 0.9 2.6 0.00 0.00 0.00 56 1009.0
20260503020904 76 322 3.5 5.2 0.00 0.00 0.00 55 1009.3
20260503020402 76 334 4.3 6.1 0.00 0.00 0.00 55 1009.1
20260503015857 76 328 4.3 7.8 0.00 0.00 0.00 55 1009.1
20260503015355 76 326 4.3 5.2 0.00 0.00 0.00 55 1009.3
20260503014850 76 323 3.5 4.3 0.00 0.00 0.00 55 1009.4
20260503014348 76 252 2.6 2.6 0.00 0.00 0.00 56 1009.4
20260503013846 76 350 1.7 4.3 0.00 0.00 0.00 56 1009.2
20260503013342 76 321 2.6 4.3 0.00 0.00 0.00 56 1009.4
20260503012839 76 323 4.3 5.2 0.00 0.00 0.00 55 1009.2
20260503012337 76 281 4.3 8.7 0.00 0.00 0.00 55 1009.4
20260503011834 76 306 4.3 7.0 0.00 0.00 0.00 56 1009.4
20260503011331 76 244 1.7 1.7 0.00 0.00 0.00 56 1009.3
20260503010827 76 319 2.6 4.3 0.00 0.00 0.00 56 1009.2
20260503010325 76 321 7.0 12.2 0.00 0.00 0.00 55 1009.3
20260503005821 77 231 2.6 6.1 0.00 0.00 0.00 56 1009.5
20260503005319 77 292 0.9 1.7 0.00 0.00 0.00 57 1009.5
20260503004815 77 187 3.5 4.3 0.00 0.00 0.00 56 1009.4
20260503004313 77 216 1.7 2.6 0.00 0.00 0.00 58 1009.6
20260503003810 77 311 2.6 4.3 0.00 0.00 0.00 56 1009.5
20260503003307 76 228 3.5 5.2 0.00 0.00 0.00 57 1009.6
20260503002804 76 306 2.6 2.6 0.00 0.00 0.00 58 1009.4
20260503002300 76 302 2.6 2.6 0.00 0.00 0.00 57 1009.5
20260503001756 76 210 1.7 2.6 0.00 0.00 0.00 57 1009.5
20260503001253 76 309 1.7 5.2 0.00 0.00 0.00 58 1009.6
20260503000751 77 301 1.7 2.6 0.00 0.00 0.00 57 1009.5
20260503000248 77 184 0.9 1.7 0.00 0.00 0.00 58 1009.7
20260502235745 76 297 2.6 4.3 0.00 0.00 0.00 57 1009.4
20260502235243 76 316 3.5 4.3 0.00 0.00 0.00 57 1009.7
20260502234738 76 341 3.5 5.2 0.00 0.00 0.00 58 1009.7
20260502234236 77 325 5.2 9.6 0.00 0.00 0.00 58 1009.8
20260502233732 77 312 4.3 5.2 0.00 0.00 0.00 57 1009.9
20260502233229 77 322 4.3 6.1 0.00 0.00 0.00 57 1010.1
20260502232725 77 323 4.3 5.2 0.00 0.00 0.00 58 1009.9
20260502232222 77 15 6.1 8.7 0.00 0.00 0.00 58 1010.2
20260502231719 76 252 2.6 2.6 0.00 0.00 0.00 58 1010.1
20260502231217 76 353 5.2 7.0 0.00 0.00 0.00 58 1010.2
20260502230715 76 279 3.5 6.1 0.00 0.00 0.00 60 1010.4
20260502230213 76 335 2.6 2.6 0.00 0.00 0.00 58 1010.4
20260502225708 76 299 3.5 5.2 0.00 0.00 0.00 57 1010.6
20260502225206 75 358 2.6 5.2 0.00 0.00 0.00 59 1010.8
20260502224702 76 341 2.6 5.2 0.00 0.00 0.00 59 1010.8